Location: ???????
(41.9144°N, 44.5432°E)
Time: 22:15:40
(UTC+00:00)

Daily predictions for brighter satellites

Satellite Brightness Start Highest point End
(mag) Time Altitude Azimuth Time Altitude Azimuth Time Altitude Azimuth
CZ-4 R/B 4.1 16:39:49 10° SW 16:42:50 20° W 16:45:51 10° NW
IRIS 3.5 16:44:51 10° W 16:47:10 75° S 16:49:46 10° E
CZ-2C R/B 4.4 16:42:22 10° N 16:47:20 39° WNW 16:52:24 10° SW
Cosmos 1862 4.3 16:45:12 10° NNW 16:49:05 49° W 16:52:57 10° SSW
Cosmos 1437 Rocket 2.7 16:46:55 10° S 16:50:45 72° E 16:54:42 10° NNE
Cosmos 2084 4.2 16:47:41 10° S 16:51:14 28° ESE 16:54:51 10° ENE
Resurs 01 Rocket 2.8 16:47:34 10° SE 16:51:17 27° ENE 16:55:00 10° N
USA 267 4.4 16:50:19 10° SSE 16:56:19 38° SW 17:02:22 10° WNW
X-37B 1.1 16:53:40 10° WNW 16:56:48 55° N 16:59:57 10° E
Cosmos 2278 Rocket 3.6 16:55:19 10° SE 16:59:02 18° E 17:02:46 10° ENE
Cosmos 1933 3.6 16:56:41 10° SSE 17:00:32 45° E 17:04:25 10° NNE
Cosmos 1844 Rocket 3.1 16:57:44 10° SSW 17:03:17 69° WNW 17:08:52 10° NNE
USA 290 2.6 17:00:13 10° N 17:03:22 47° ENE 17:06:01 13° SE
USA 186 3.1 17:02:57 10° SSW 17:05:14 28° W 17:07:24 10° NW
CZ-4C R/B 3.9 16:59:36 10° NNW 17:06:08 36° NE 17:13:24 11° ESE
Cosmos 1606 4.0 17:09:25 10° SSW 17:13:00 42° WNW 17:16:38 10° N
MOS 1-B Rocket 4.4 17:05:57 10° NNE 17:13:22 84° WNW 17:19:38 10° SSW
Cosmos 1782 3.5 17:11:11 11° SSE 17:14:43 35° E 17:18:22 10° NNE
IGS 5A 4.1 17:11:38 14° SE 17:14:46 38° ENE 17:18:37 10° N
ERS-2 4.2 17:12:49 10° N 17:16:03 31° WNW 17:19:16 10° SW
Cosmos 1602 4.4 17:13:00 10° N 17:16:38 37° ENE 17:19:10 17° SE
GPS 2-04 Rocket1 3.9 17:15:02 10° SW 17:18:29 26° SSE 17:20:24 18° SE
MOS 1 4.4 17:12:53 10° SSE 17:18:34 85° WSW 17:24:16 10° NNW
Cosmos 1805 Rocket 3.7 17:15:59 10° N 17:20:21 76° W 17:24:41 10° S
Cosmos 1242 Rocket 2.4 17:16:55 10° S 17:20:29 74° E 17:24:02 10° NNE
ATLAS 5 CENTAUR R/B 2.5 17:17:42 10° NNW 17:23:24 75° NE 17:28:41 17° SE
Meteor 1-25 Rocket 4.3 17:18:39 10° N 17:24:31 77° E 17:30:08 11° SSE
SJ-6B 4.2 17:21:22 10° SSW 17:24:59 38° W 17:28:43 10° NNW
Cosmos 1386 Rocket 4.5 17:19:35 10° N 17:25:39 87° W 17:31:46 10° S
Cosmos 1633 Rocket 3.5 17:22:24 10° N 17:26:38 45° ENE 17:29:26 19° SE
Cosmos 1503 Rocket 4.1 17:22:26 10° SSW 17:27:36 82° WNW 17:32:49 10° NNE
DELTA 2 R/B (1) 4.1 17:23:48 10° W 17:29:05 46° SSW 17:32:41 20° SE
Cosmos 1777 Rocket 4.4 17:24:20 10° S 17:29:09 40° ESE 17:33:59 10° NE
Cosmos 1328 Rocket 3.8 17:30:43 15° SSE 17:34:11 49° E 17:38:27 10° NNE
Ariane Rocket 3.5 17:31:02 10° S 17:36:00 59° WSW 17:41:01 10° NNW
Cosmos 883 Rocket 4.5 17:30:03 10° S 17:36:20 78° E 17:42:42 10° N
Cosmos 1812 3.7 17:37:16 25° ESE 17:38:17 28° E 17:41:37 10° NNE
Cosmos 1470 Rocket 4.4 17:34:37 10° N 17:38:45 35° ENE 17:40:41 24° ESE
ARIANE 5 R/B 3.8 17:37:17 20° ESE 17:39:06 27° ENE 17:42:47 10° N
Cosmos 1745 Rocket 4.3 17:33:24 10° NNW 17:39:32 67° W 17:45:35 10° S
Cosmos 1833 Rocket 3.5 17:35:16 10° N 17:40:29 37° ENE 17:43:40 21° ESE
Cosmos 1709 Rocket 3.9 17:35:53 10° N 17:42:01 75° E 17:46:53 17° SSE
Meteor 2-17 Rocket 4.4 17:36:03 10° N 17:42:15 81° E 17:47:20 16° S
Resurs 1-3 4.4 17:38:52 10° S 17:43:06 49° W 17:47:23 10° NNW
SL-4 R/B 4.2 17:44:22 10° W 17:47:38 20° SW 17:50:25 12° S
Cosmos 1666 4.0 17:47:20 10° NNE 17:50:20 23° ENE 17:50:46 22° E
NOSS 3-3 (A) 3.9 17:45:04 10° SW 17:50:43 82° NW 17:57:12 10° NE
NOSS 3-3 (C) 3.9 17:45:10 10° SW 17:50:50 83° NW 17:57:19 10° NE
Cosmos 1933 Rocket 4.5 17:49:06 10° NNE 17:53:00 31° ENE 17:54:08 27° ESE
Cosmos 1666 Rocket 3.7 17:50:33 10° NNW 17:54:56 71° W 17:57:50 20° S
ATLAS 2AS CENTAUR R/B 4.3 17:50:37 10° NNW 17:56:42 26° NNE 18:02:14 11° E
CZ-2C R/B 3.6 17:55:57 10° NNE 18:00:28 88° ESE 18:04:15 15° SSW
USA 307 4.4 17:57:07 10° NW 18:00:53 29° NNE 18:03:26 17° ENE
Cosmos 1437 2.6 18:02:04 43° SSW 18:02:49 69° W 18:05:40 10° N
Cosmos 2315 Rocket 4.1 17:56:58 10° S 18:03:20 80° W 18:09:46 10° N
SPOT 1/Viking Rocket 3.5 18:02:19 28° SSE 18:05:07 80° ENE 18:10:20 10° N
USA 245 3.3 18:06:21 33° NNE 18:06:21 33° NNE 18:07:48 10° N
SJ 16-02 1.6 18:05:41 38° SE 18:06:44 46° ESE 18:11:00 10° NNE
JB-3 4.4 18:06:01 10° NNE 18:09:48 51° E 18:10:15 48° SE
Iridium 4 Rocket 4.0 18:11:29 33° SE 18:13:53 54° E 18:19:37 10° N
USA 308 4.2 18:10:40 10° NW 18:14:36 34° NNE 18:16:32 23° ENE
Terra 2.7 18:15:15 29° E 18:16:21 33° ENE 18:20:36 10° N
Meteor 1-14 Rocket 4.3 18:12:48 10° NNW 18:18:41 80° W 18:21:46 29° S
SPOT 3 Rocket 4.4 18:16:15 18° SSW 18:19:47 46° W 18:24:45 10° NNW
Cosmos 2082 Rocket 3.0 18:14:55 10° N 18:20:10 39° ENE 18:22:08 30° E
Cosmos 1500 3.3 18:16:38 10° NNW 18:20:21 69° W 18:21:15 47° SSW
SPOT 5 3.3 18:20:06 39° SE 18:21:41 55° ENE 18:26:48 10° N
Cosmos 1151 Rocket 4.5 18:20:16 10° SW 18:24:16 36° WNW 18:28:20 10° N
Cosmos 158 Rocket 4.4 18:21:32 10° N 18:26:11 43° ENE 18:27:15 37° E
COSMOS 2406 3.1 18:20:44 10° NNW 18:26:26 84° ENE 18:28:30 41° SSE
Resurs 01 Rocket 3.3 18:24:41 15° SSW 18:27:40 29° W 18:31:33 10° NW
Cosmos 2228 Rocket 3.4 18:30:40 46° E 18:30:44 46° E 18:35:00 10° NNE
OE (NEXTSAT) 4.3 18:27:44 10° WNW 18:30:59 77° WNW 18:30:59 77° WNW
Meteor 2-6 Rocket 4.1 18:29:59 27° SSW 18:33:00 83° W 18:38:33 10° N
X-37B 2.0 18:30:23 10° W 18:32:26 31° WSW 18:32:26 31° WSW
Meteor 1-27 Rocket 4.1 18:34:00 42° SE 18:35:14 49° E 18:40:54 10° NNE
Cosmos 1538 Rocket 4.0 18:31:31 10° NNW 18:36:55 90° NE 18:38:24 49° SSE
Cosmos 2278 Rocket 2.6 18:36:56 10° SW 18:42:32 63° WNW 18:48:10 10° NNE
Spot 2 Rocket 3.8 18:41:55 39° SSW 18:43:38 61° W 18:48:38 10° NNW
Cosmos 1271 Rocket 2.7 18:44:11 76° SW 18:44:25 81° W 18:48:26 10° N
Cosmos 1943 Rocket 3.4 18:50:58 25° E 18:50:58 25° E 18:54:24 10° NE
ERS-1 Rocket 2.9 18:50:21 55° S 18:51:26 78° WSW 18:56:29 10° NNW
Cosmos 2369 Rocket 4.3 18:53:40 12° ENE 18:53:40 12° ENE 18:54:31 10° ENE
Cosmos 1680 Rocket 4.1 18:48:24 10° N 18:53:28 42° ENE 18:54:14 40° E
USA 305 3.0 18:50:59 10° NW 18:55:14 65° NE 18:55:19 65° NE
CZ-4C R/B 3.2 18:47:49 10° NW 18:55:14 67° WSW 18:58:35 39° S
Cosmos 1869 Rocket 3.5 18:57:40 10° N 19:01:45 72° NE 19:01:45 72° NE
Meteor 1-11 Rocket 3.8 18:58:03 10° N 19:04:03 87° W 19:05:23 57° S
Cosmos 2327 Rocket 4.5 19:00:33 10° N 19:07:00 83° E 19:08:33 55° SSE
ATLAS 5 CENTAUR R/B 4.2 19:03:21 10° WNW 19:07:49 21° WSW 19:10:14 18° SW
USA 306 3.2 19:10:16 10° NW 19:13:55 64° NW 19:13:55 64° NW
ARIANE 5 R/B 4.1 19:14:50 25° WSW 19:15:29 27° W 19:19:10 10° NW
Cosmos 1707 Rocket 4.2 19:18:46 49° NE 19:18:46 49° NE 19:22:10 10° NNE
Cosmos 1340 Rocket 3.6 19:16:46 10° N 19:19:53 48° NNE 19:19:53 48° NNE
Cosmos 2154 Rocket 4.1 19:17:12 10° NNW 19:23:30 72° W 19:24:55 54° SSW
Cosmos 1833 Rocket 3.8 19:19:20 10° NW 19:24:19 33° WSW 19:25:22 30° SW
Cosmos 1898 Rocket 3.4 19:27:02 87° SSE 19:27:06 87° ESE 19:32:28 10° NNE
Cosmos 923 Rocket 4.0 19:24:30 10° NNW 19:29:45 71° WSW 19:29:51 71° WSW
NOSS 3-4 (A) 3.9 19:27:58 10° NW 19:35:03 68° WSW 19:36:40 55° S
NOSS 3-4 (C) 3.9 19:28:04 10° NW 19:35:09 69° WSW 19:36:47 55° S
Cosmos 1536 3.9 19:31:46 10° NNW 19:34:51 41° WNW 19:34:51 41° WNW
Cosmos 962 Rocket 4.3 19:31:30 10° N 19:37:39 86° E 19:38:14 74° SSE
Milstar 3 4.1 19:28:21 10° WSW 19:37:10 33° SSW 19:37:10 33° SSW
Cosmos 1743 4.0 19:36:55 10° N 19:39:25 39° NNW 19:39:25 39° NNW
Cosmos 990 Rocket 4.4 19:40:01 51° WSW 19:40:50 57° WNW 19:46:02 10° NNE
USA 307 4.2 19:36:53 10° WNW 19:39:32 35° WNW 19:39:32 35° WNW
Cosmos 2297 3.6 19:40:54 76° SW 19:41:19 84° WNW 19:47:02 10° NNE
SJ 16-02 3.9 19:42:36 10° WSW 19:45:34 18° WNW 19:48:36 10° NNW
ATLAS 2AS CENTAUR R/B 2.5 19:41:19 10° NW 19:48:40 89° SW 19:49:39 69° SSE
Meteor 1-18 Rocket 4.3 19:51:32 63° ENE 19:51:32 63° ENE 19:56:39 10° NNE
Cosmos 1733 Rocket 3.9 19:47:34 10° N 19:50:44 48° N 19:50:44 48° N
Cosmos 1461 4.5 19:54:46 32° NE 19:54:46 32° NE 19:57:20 10° NE
Terra 3.3 19:54:09 26° W 19:54:09 26° W 19:58:06 10° NW
Cosmos 2181 Rocket 3.8 19:59:49 83° S 20:00:04 88° E 20:06:14 10° N
Cosmos 2082 Rocket 3.4 19:59:15 10° NW 20:03:59 30° WSW 20:03:59 30° WSW
Cosmos 2366 rocket 3.8 20:04:54 10° N 20:11:07 87° E 20:11:15 85° SE
Cosmos 44 3.9 20:09:11 10° NW 20:13:35 55° WNW 20:13:35 55° WNW
Spot 4 4.3 20:16:12 58° NNW 20:16:12 58° NNW 20:20:10 10° NNW
Cosmos 2341 Rocket 4.4 20:12:30 10° NNW 20:18:41 52° W 20:19:13 51° WSW
Cosmos 489 Rocket 4.4 20:22:40 10° NNW 20:28:48 76° W 20:28:48 76° W
Cosmos 1943 Rocket 3.0 20:32:26 41° W 20:33:15 44° WNW 20:38:36 10° NNE
Cosmos 2218 Rocket 4.1 20:27:08 10° NNW 20:33:20 62° W 20:33:29 62° W
Cosmos 2369 Rocket 2.3 20:35:25 72° NNW 20:35:25 72° NNW 20:40:37 10° NNE
Gbstr 26 Del rocket 3.9 20:33:54 10° NW 20:41:00 77° NNE 20:41:19 74° ENE
Cosmos 1607 3.9 20:42:45 79° E 20:42:45 79° E 20:49:01 10° NE
COBE Rocket 4.4 20:45:01 60° NNW 20:45:01 60° NNW 20:49:13 10° NNW
Cosmos 1048 Rocket 4.4 20:40:50 10° NNW 20:45:26 58° NNE 20:45:26 58° NNE
Nadezhda 3 Rocket 3.9 20:50:28 78° ENE 20:50:28 78° ENE 20:56:34 10° N
Okean 1-7 4.5 20:54:10 35° N 20:54:10 35° N 20:56:46 10° N
Cosmos 1656 Rocket 3.9 20:54:13 66° NNE 20:54:13 66° NNE 20:58:57 10° NNE
Thor Agena Rocket 3.9 20:48:14 10° NNE 20:52:36 60° NE 20:52:36 60° NE
Cosmos 2298 Rocket 4.4 20:55:04 62° NNE 20:55:04 62° NNE 20:59:27 10° NNE
Cosmos 2263 4.4 21:01:23 67° NW 21:01:23 67° NW 21:06:58 10° NNE
ALOS 2 4.2 21:03:43 29° NW 21:03:43 29° NW 21:06:09 10° NNW
Cosmos 1066 Rocket 4.5 21:05:09 64° ENE 21:05:09 64° ENE 21:10:15 10° NNE
Meteor 2-4 Rocket 4.4 21:05:01 47° WNW 21:05:01 47° WNW 21:10:23 10° N
Meteor 1-13 Rocket 4.3 21:09:31 71° N 21:09:31 71° N 21:14:26 10° N
Meteor 1-23 Rocket 4.4 21:20:58 66° ENE 21:20:58 66° ENE 21:26:23 10° NNE
Resurs 1-4 Rocket 4.2 21:19:20 10° NE 21:22:27 16° E 21:22:30 16° E
USA 215 3.3 21:26:40 44° ESE 21:28:57 75° NE 21:35:29 10° NW
SeaSat 1 2.8 21:24:36 10° NNE 21:28:46 60° N 21:28:46 60° N
RESURS DK-1 4.4 21:26:00 10° NNW 21:27:39 23° NW 21:27:39 23° NW
Cosmos 2344 4.4 21:22:21 10° NW 21:31:58 84° NE 21:41:17 23° SE
ISS -0.8 21:45:21 17° N 21:45:21 17° N 21:47:19 10° NE
Cosmos 1125 Rocket 4.4 21:46:34 41° WNW 21:46:34 41° WNW 21:51:17 10° N
Okean 2 Rocket 4.2 21:43:40 10° N 21:46:35 41° NNW 21:46:35 41° NNW
Cosmos 2151 Rocket 4.5 21:44:20 10° N 21:47:40 48° N 21:47:40 48° N
USA 281 3.8 21:50:08 32° ESE 21:53:03 53° ENE 21:59:24 10° NNW
Cosmos 44 Rocket 3.7 21:48:13 10° NNW 21:52:44 65° N 21:52:44 65° N
CZ-4 R/B 4.3 21:50:12 10° NNE 21:54:17 59° NE 21:54:17 59° NE
BREEZE-M DEB (TANK) 4.3 21:58:05 27° ESE 21:58:05 27° ESE 22:04:10 10° ENE
Cosmos 1934 Rocket 4.1 21:51:52 10° NNW 21:57:39 56° W 21:57:39 56° W
Cosmos 1339 Rocket 4.5 21:58:16 69° WSW 21:58:40 71° W 22:05:04 10° N
ATLAS CENTAUR R/B 3.4 22:02:22 21° NNW 22:02:22 21° NNW 22:04:36 10° N
Helios 1B rocket 4.3 21:58:16 10° NE 22:00:58 24° ENE 22:00:58 24° ENE
Meteor 1-22 Rocket 4.2 21:56:30 10° N 22:02:33 85° E 22:02:57 78° SE
NOSS 2-1 (C) 4.3 22:04:58 10° NW 22:10:11 89° ENE 22:11:15 64° SE
Cosmos 1726 3.9 22:06:41 10° N 22:09:01 31° NNE 22:09:01 31° NNE
USA 81 4.3 22:05:14 10° N 22:09:57 61° WNW 22:09:57 61° WNW
Lacrosse 5 1.9 22:15:41 74° N 22:15:41 74° N 22:20:29 10° NE
SL-16 R/B 3.2 22:12:49 31° SE 22:15:34 51° ENE 22:21:36 10° N
NOSS 2-1 (D) 4.2 22:11:45 10° NW 22:17:00 83° SW 22:17:48 69° SSE
Cosmos 1727 Rocket 3.9 22:17:57 69° S 22:18:47 87° E 22:25:12 10° N
Helios 1A 4.2 22:21:59 36° NW 22:21:59 36° NW 22:24:37 10° NNW
Cosmos 1707 3.8 22:28:34 43° NNE 22:28:34 43° NNE 22:31:19 10° NNE
Cosmos 1975 Rocket 4.0 22:28:26 39° E 22:28:26 39° E 22:32:26 10° NNE
Cosmos 1378 Rocket 4.4 22:34:44 42° NW 22:34:44 42° NW 22:38:03 10° N
Cosmos 2251 Rocket 4.2 22:31:26 10° N 22:36:32 49° ENE 22:38:52 29° SE
Meteor 2-20 4.5 22:36:26 57° WSW 22:37:13 62° W 22:43:20 10° N
Cosmos 1953 3.8 22:36:54 10° NNE 22:40:29 31° ENE 22:41:10 29° E
NPP 3.8 22:36:37 10° NNE 22:42:00 66° ESE 22:42:54 56° SSE
Cosmos 1697 Rocket 3.7 22:45:13 31° SE 22:46:40 36° ESE 22:51:44 10° NE
MOZ.5/SAFIR/RUBIN 5/SL-8 4.3 22:48:23 46° WNW 22:48:23 46° WNW 22:52:08 10° NNW
CZ-2D R/B 2.0 22:43:16 10° NNE 22:48:42 89° WNW 22:49:29 67° SSW
Meteor 2-10 4.3 22:45:01 10° NNW 22:49:59 50° W 22:49:59 50° W
Cosmos 1932 4.4 22:50:06 56° SSW 22:51:37 86° ESE 22:58:00 10° NNE
ARGOS Delta rocket 4.3 22:48:10 10° NNE 22:52:43 53° E 22:53:36 46° SE
ADEOS II 2.8 22:48:21 10° NNE 22:53:25 47° E 22:54:59 36° SE
Okean 1 Rocket 4.0 22:50:31 10° NNW 22:53:39 35° WNW 22:53:39 35° WNW
Cosmos 1980 Rocket 4.0 22:55:39 17° SE 22:58:22 23° E 23:02:45 10° NE
Meteor 1-21 4.5 22:57:38 49° WSW 22:58:33 54° WNW 23:04:15 10° N
Cosmos 1025 Rocket 3.8 23:00:55 40° SE 23:01:46 45° E 23:05:56 10° NNE
Cosmos 1459 Rocket 3.9 22:55:42 10° N 23:01:58 79° W 23:03:55 46° S
Cosmos 614 Rocket 4.3 22:57:21 10° NNW 23:02:25 63° ENE 23:05:17 25° SE
Resurs 1-4 Rocket 2.1 22:57:30 10° N 23:02:43 65° WNW 23:03:35 56° WSW
COSMOS 2455 2.7 22:57:45 10° NNW 23:03:48 80° WSW 23:06:40 33° SSE
Timation 2 Rocket 4.0 23:01:06 10° NNW 23:07:06 75° ENE 23:12:45 12° SSE
Cosmos 2061 Rocket 4.1 23:01:03 10° N 23:07:24 74° E 23:11:08 26° SSE
USA 276 3.7 23:08:18 32° N 23:08:18 32° N 23:10:55 10° NE
Cosmos 2016 Rocket 4.0 23:01:56 10° N 23:08:13 79° E 23:11:25 30° SSE
Cosmos 2227 Rocket 2.4 23:03:39 10° NNW 23:09:19 70° ENE 23:14:15 14° SSE
BREEZE-M DEB (TANK) 3.6 23:10:18 28° ESE 23:10:18 28° ESE 23:11:56 10° E
USA 215 4.2 23:13:57 28° W 23:13:57 28° W 23:17:59 10° WNW
Cosmos 2297 Rocket 2.1 23:06:44 10° NNW 23:12:26 85° WSW 23:15:24 30° SSE
Cosmos 2369 4.5 23:10:46 30° SSE 23:13:05 45° ESE 23:18:30 10° NE
Landsat 4 3.6 23:09:47 10° NNE 23:13:27 83° NNW 23:13:27 83° NNW
Cosmos 2173 Rocket 4.0 23:09:08 10° NNW 23:15:12 61° W 23:17:06 43° SSW
Cosmos 1758 4.3 23:12:02 10° NNW 23:15:05 35° WNW 23:15:05 35° WNW
ADEOS Rocket 3.8 23:11:06 10° SSE 23:18:22 67° ENE 23:26:04 10° N
In-Cosmos 22 4.4 23:20:44 44° SW 23:22:11 57° WNW 23:27:39 10° N
Cosmos 1315 Rocket 3.3 23:18:51 10° NNW 23:22:10 43° WNW 23:22:10 43° WNW
ISS -0.9 23:20:18 10° NW 23:22:43 18° N 23:25:09 10° ENE
Cosmos 1544 Rocket 3.6 23:20:15 10° N 23:24:39 75° E 23:26:21 37° SSE
Cosmos 304 Rocket 3.7 23:24:48 47° S 23:26:08 79° ESE 23:30:57 10° NNE
Meteor 2-11 Rocket 4.4 23:20:32 10° NNW 23:26:38 65° W 23:29:15 35° SSW
UNK 4.3 23:28:11 39° W 23:28:11 39° W 23:32:24 10° NNW
Geosat FO 4.5 23:29:39 10° NNE 23:33:05 74° ESE 23:33:30 64° S
Cosmos 1674 3.0 23:33:07 48° W 23:33:10 48° W 23:36:54 10° N
Cosmos 1455 Rocket 3.2 23:30:50 10° NNW 23:35:01 49° W 23:35:28 47° WSW
Helios 1B rocket 3.7 23:33:26 10° NNW 23:36:54 26° WNW 23:37:16 26° WNW
USA 281 4.0 23:36:59 29° WSW 23:37:45 30° WSW 23:43:23 10° NW
GP-B 3.2 23:34:05 10° N 23:38:32 76° E 23:40:39 30° S
Cosmos 1802 Rocket 4.2 23:33:47 10° NNW 23:39:39 49° W 23:42:03 32° SW
Cosmos 407 Rocket 3.8 23:34:21 10° NNW 23:39:42 72° ENE 23:45:02 10° SSE
CBERS-1 4.0 23:36:00 10° NNE 23:41:08 85° ESE 23:43:40 31° S
Cosmos 1536 Rocket 3.7 23:39:41 32° S 23:41:39 71° E 23:46:04 10° NNE
Cosmos 1656 4.3 23:39:44 30° WSW 23:41:43 41° WNW 23:46:55 10° N
Cosmos 1624 Rocket 4.3 23:41:27 27° S 23:44:21 65° ESE 23:49:38 10° NNE
Cosmos 2123 Rocket 4.2 23:43:43 32° SW 23:46:26 54° WNW 23:52:31 10° N
Cosmos 2219 3.5 23:47:37 10° NW 23:53:02 45° WSW 23:56:14 23° SSW
Meteor 1-24 Rocket 4.3 23:48:49 13° S 23:53:38 55° E 23:58:56 10° NNE
Lacrosse 4 Rocket 1.5 23:52:14 36° SSW 23:54:00 85° WNW 23:58:28 10° NNE
